Location: *
(45.1333°S, 169.6333°W)
Time: 21:18:29
(UTC+00:00)

H-2A R/B - Pass Details

Date: 26 May 2022
Orbit: 576 x 653 km, 98.5° (Epoch: 01 July)

Event Time Altitude Azimuth Distance (km) Brightness Sun altitude
Exits shadow 05:05:26 11° 150° (SSE) 2,004 4.2 -13.1°
Drops below altitude 10° 05:05:41 10° 152° (SSE) 2,056 4.3 -13.1°
Sets 05:08:53 0° 177° (S) 2,990 5.4 -13.7°
